owner,sensor,date,latitude,longitude,vertical_datum,sea_water_temperature,qcFlag 
LUMCON,ioos:station:LUMCON:103:1,2004-06-01T00:00:00Z,30.1889,-90.1683,1.0,29.1,11111222 
LUMCON,ioos:station:LUMCON:103:1,2004-06-01T01:00:00Z,30.1889,-90.1683,1.0,29.1,11111222 
LUMCON,ioos:station:LUMCON:103:1,2004-06-01T02:00:00Z,30.1889,-90.1683,1.0,29.0,11111222 
LUMCON,ioos:station:LUMCON:103:1,2004-06-01T03:00:00Z,30.1889,-90.1683,1.0,28.9,11111222 
LUMCON,ioos:station:LUMCON:103:1,2004-06-01T04:00:00Z,30.1889,-90.1683,1.0,28.8,11111222 
LUMCON,ioos:station:LUMCON:103:1,2004-06-01T05:00:00Z,30.1889,-90.1683,1.0,28.8,11111222 
LUMCON,ioos:station:LUMCON:103:1,2004-06-01T06:00:00Z,30.1889,-90.1683,1.0,28.7,11111222 
LUMCON,ioos:station:LUMCON:103:1,2004-06-01T07:00:00Z,30.1889,-90.1683,1.0,28.6,11111222 
LUMCON,ioos:station:LUMCON:103:1,2004-06-01T08:00:00Z,30.1889,-90.1683,1.0,28.5,11111222 
LUMCON,ioos:station:LUMCON:103:1,2004-06-01T09:00:00Z,30.1889,-90.1683,1.0,28.5,11111222 
LUMCON,ioos:station:LUMCON:103:1,2004-06-01T10:00:00Z,30.1889,-90.1683,1.0,28.4,11111222 
LUMCON,ioos:station:LUMCON:103:1,2004-06-01T11:00:00Z,30.1889,-90.1683,1.0,28.3,11111222 
LUMCON,ioos:station:LUMCON:103:1,2004-06-01T12:00:00Z,30.1889,-90.1683,1.0,28.1,11111222 
LUMCON,ioos:station:LUMCON:103:1,2004-06-01T13:00:00Z,30.1889,-90.1683,1.0,28.1,11111222 
LUMCON,ioos:station:LUMCON:103:1,2004-06-01T14:00:00Z,30.1889,-90.1683,1.0,28.0,11111222 
LUMCON,ioos:station:LUMCON:103:1,2004-06-01T15:00:00Z,30.1889,-90.1683,1.0,28.1,11111222 
LUMCON,ioos:station:LUMCON:103:1,2004-06-01T18:00:00Z,30.1889,-90.1683,1.0,28.0,11111222 
LUMCON,ioos:station:LUMCON:103:1,2004-06-01T20:00:00Z,30.1889,-90.1683,1.0,28.4,11111222 
LUMCON,ioos:station:LUMCON:103:1,2004-06-02T14:00:00Z,30.1889,-90.1683,1.0,27.5,11111222 
LUMCON,ioos:station:LUMCON:103:1,2004-06-02T15:00:00Z,30.1889,-90.1683,1.0,27.5,11111222 
LUMCON,ioos:station:LUMCON:103:1,2004-06-02T16:00:00Z,30.1889,-90.1683,1.0,27.5,11111222 
LUMCON,ioos:station:LUMCON:103:1,2004-06-02T17:00:00Z,30.1889,-90.1683,1.0,27.6,11111222 
LUMCON,ioos:station:LUMCON:103:1,2004-06-02T18:00:00Z,30.1889,-90.1683,1.0,27.8,11111222 
LUMCON,ioos:station:LUMCON:103:1,2004-06-02T19:00:00Z,30.1889,-90.1683,1.0,27.8,11111222 
LUMCON,ioos:station:LUMCON:103:1,2004-06-02T20:00:00Z,30.1889,-90.1683,1.0,28.2,11111222 
LUMCON,ioos:station:LUMCON:103:1,2004-06-02T21:00:00Z,30.1889,-90.1683,1.0,28.6,11111222 
LUMCON,ioos:station:LUMCON:103:1,2004-06-02T22:00:00Z,30.1889,-90.1683,1.0,28.6,11111222 
LUMCON,ioos:station:LUMCON:103:1,2004-06-02T23:00:00Z,30.1889,-90.1683,1.0,28.9,11111222 
LUMCON,ioos:station:LUMCON:103:1,2004-06-03T00:00:00Z,30.1889,-90.1683,1.0,28.7,11111222 
LUMCON,ioos:station:LUMCON:103:1,2004-06-03T01:00:00Z,30.1889,-90.1683,1.0,28.7,11111222 
LUMCON,ioos:station:LUMCON:103:1,2004-06-03T02:00:00Z,30.1889,-90.1683,1.0,28.6,11111222 
LUMCON,ioos:station:LUMCON:103:1,2004-06-03T03:00:00Z,30.1889,-90.1683,1.0,28.4,11111222 
LUMCON,ioos:station:LUMCON:103:1,2004-06-03T04:00:00Z,30.1889,-90.1683,1.0,28.2,11111222 
LUMCON,ioos:station:LUMCON:103:1,2004-06-03T05:00:00Z,30.1889,-90.1683,1.0,28.2,11111222 
LUMCON,ioos:station:LUMCON:103:1,2004-06-03T06:00:00Z,30.1889,-90.1683,1.0,28.2,11111222 
LUMCON,ioos:station:LUMCON:103:1,2004-06-03T09:00:00Z,30.1889,-90.1683,1.0,28.0,11111222 
LUMCON,ioos:station:LUMCON:103:1,2004-06-03T10:00:00Z,30.1889,-90.1683,1.0,27.7,11111222 
LUMCON,ioos:station:LUMCON:103:1,2004-06-03T11:00:00Z,30.1889,-90.1683,1.0,27.6,11111222 
LUMCON,ioos:station:LUMCON:103:1,2004-06-03T12:00:00Z,30.1889,-90.1683,1.0,27.7,11111222 
LUMCON,ioos:station:LUMCON:103:1,2004-06-03T13:00:00Z,30.1889,-90.1683,1.0,27.5,11111222 
LUMCON,ioos:station:LUMCON:103:1,2004-06-03T14:00:00Z,30.1889,-90.1683,1.0,27.5,11111222 
LUMCON,ioos:station:LUMCON:103:1,2004-06-03T15:00:00Z,30.1889,-90.1683,1.0,27.5,11111222 
LUMCON,ioos:station:LUMCON:103:1,2004-06-03T16:00:00Z,30.1889,-90.1683,1.0,27.6,11111222 
LUMCON,ioos:station:LUMCON:103:1,2004-06-03T17:00:00Z,30.1889,-90.1683,1.0,27.8,11111222 
LUMCON,ioos:station:LUMCON:103:1,2004-06-03T18:00:00Z,30.1889,-90.1683,1.0,28.1,11111222 
LUMCON,ioos:station:LUMCON:103:1,2004-06-03T20:00:00Z,30.1889,-90.1683,1.0,28.4,11111222 
LUMCON,ioos:station:LUMCON:103:1,2004-06-03T21:00:00Z,30.1889,-90.1683,1.0,28.5,11111222 
LUMCON,ioos:station:LUMCON:103:1,2004-06-04T13:00:00Z,30.1889,-90.1683,1.0,27.6,11111222 
LUMCON,ioos:station:LUMCON:103:1,2004-06-04T14:00:00Z,30.1889,-90.1683,1.0,27.6,11111222 
LUMCON,ioos:station:LUMCON:103:1,2004-06-04T15:00:00Z,30.1889,-90.1683,1.0,27.7,11111222 
LUMCON,ioos:station:LUMCON:103:1,2004-06-04T18:00:00Z,30.1889,-90.1683,1.0,27.5,11111222 
LUMCON,ioos:station:LUMCON:103:1,2004-06-04T19:00:00Z,30.1889,-90.1683,1.0,27.6,11111222 
LUMCON,ioos:station:LUMCON:103:1,2004-06-04T20:00:00Z,30.1889,-90.1683,1.0,27.6,11111222 
LUMCON,ioos:station:LUMCON:103:1,2004-06-04T21:00:00Z,30.1889,-90.1683,1.0,27.6,11111222 
LUMCON,ioos:station:LUMCON:103:1,2004-06-04T22:00:00Z,30.1889,-90.1683,1.0,27.7,11111222 
LUMCON,ioos:station:LUMCON:103:1,2004-06-04T23:00:00Z,30.1889,-90.1683,1.0,28.2,11111222 
LUMCON,ioos:station:LUMCON:103:1,2004-06-05T00:00:00Z,30.1889,-90.1683,1.0,27.9,11111222 
LUMCON,ioos:station:LUMCON:103:1,2004-06-05T01:00:00Z,30.1889,-90.1683,1.0,28.0,11111222 
LUMCON,ioos:station:LUMCON:103:1,2004-06-05T02:00:00Z,30.1889,-90.1683,1.0,27.9,11111222 
LUMCON,ioos:station:LUMCON:103:1,2004-06-05T03:00:00Z,30.1889,-90.1683,1.0,27.8,11111222 
LUMCON,ioos:station:LUMCON:103:1,2004-06-05T04:00:00Z,30.1889,-90.1683,1.0,27.8,11111222 
LUMCON,ioos:station:LUMCON:103:1,2004-06-05T05:00:00Z,30.1889,-90.1683,1.0,27.8,11111222 
LUMCON,ioos:station:LUMCON:103:1,2004-06-05T06:00:00Z,30.1889,-90.1683,1.0,27.9,11111222 
LUMCON,ioos:station:LUMCON:103:1,2004-06-05T07:00:00Z,30.1889,-90.1683,1.0,27.9,11111222 
LUMCON,ioos:station:LUMCON:103:1,2004-06-05T08:00:00Z,30.1889,-90.1683,1.0,27.7,11111222 
LUMCON,ioos:station:LUMCON:103:1,2004-06-05T09:00:00Z,30.1889,-90.1683,1.0,27.6,11111222 
LUMCON,ioos:station:LUMCON:103:1,2004-06-05T10:00:00Z,30.1889,-90.1683,1.0,27.5,11111222 
LUMCON,ioos:station:LUMCON:103:1,2004-06-05T11:00:00Z,30.1889,-90.1683,1.0,27.4,11111222 
LUMCON,ioos:station:LUMCON:103:1,2004-06-05T12:00:00Z,30.1889,-90.1683,1.0,27.2,11111222 
LUMCON,ioos:station:LUMCON:103:1,2004-06-05T13:00:00Z,30.1889,-90.1683,1.0,27.2,11111222 
LUMCON,ioos:station:LUMCON:103:1,2004-06-05T14:00:00Z,30.1889,-90.1683,1.0,27.3,11111222 
LUMCON,ioos:station:LUMCON:103:1,2004-06-05T15:00:00Z,30.1889,-90.1683,1.0,27.3,11111222 
LUMCON,ioos:station:LUMCON:103:1,2004-06-05T16:00:00Z,30.1889,-90.1683,1.0,27.3,11111222 
LUMCON,ioos:station:LUMCON:103:1,2004-06-05T17:00:00Z,30.1889,-90.1683,1.0,27.4,11111222 
LUMCON,ioos:station:LUMCON:103:1,2004-06-05T18:00:00Z,30.1889,-90.1683,1.0,27.8,11111222 
LUMCON,ioos:station:LUMCON:103:1,2004-06-05T19:00:00Z,30.1889,-90.1683,1.0,27.9,11111222 
LUMCON,ioos:station:LUMCON:103:1,2004-06-05T20:00:00Z,30.1889,-90.1683,1.0,27.9,11111222 
LUMCON,ioos:station:LUMCON:103:1,2004-06-05T21:00:00Z,30.1889,-90.1683,1.0,28.8,11111222 
LUMCON,ioos:station:LUMCON:103:1,2004-06-05T22:00:00Z,30.1889,-90.1683,1.0,29.2,11111222 
LUMCON,ioos:station:LUMCON:103:1,2004-06-05T23:00:00Z,30.1889,-90.1683,1.0,28.7,11111222 
LUMCON,ioos:station:LUMCON:103:1,2004-06-06T00:00:00Z,30.1889,-90.1683,1.0,28.6,11111222 
LUMCON,ioos:station:LUMCON:103:1,2004-06-06T01:00:00Z,30.1889,-90.1683,1.0,28.2,11111222 
LUMCON,ioos:station:LUMCON:103:1,2004-06-06T02:00:00Z,30.1889,-90.1683,1.0,28.0,11111222 
LUMCON,ioos:station:LUMCON:103:1,2004-06-06T03:00:00Z,30.1889,-90.1683,1.0,28.0,11111222 
LUMCON,ioos:station:LUMCON:103:1,2004-06-06T04:00:00Z,30.1889,-90.1683,1.0,27.9,11111222 
LUMCON,ioos:station:LUMCON:103:1,2004-06-06T05:00:00Z,30.1889,-90.1683,1.0,28.0,11111222 
LUMCON,ioos:station:LUMCON:103:1,2004-06-06T06:00:00Z,30.1889,-90.1683,1.0,28.0,11111222 
LUMCON,ioos:station:LUMCON:103:1,2004-06-06T07:00:00Z,30.1889,-90.1683,1.0,28.2,11111222 
LUMCON,ioos:station:LUMCON:103:1,2004-06-07T14:00:00Z,30.1889,-90.1683,1.0,27.0,11111222 
LUMCON,ioos:station:LUMCON:103:1,2004-06-07T16:00:00Z,30.1889,-90.1683,1.0,28.0,11111222 
LUMCON,ioos:station:LUMCON:103:1,2004-06-07T17:00:00Z,30.1889,-90.1683,1.0,28.0,11111222 
LUMCON,ioos:station:LUMCON:103:1,2004-06-07T18:00:00Z,30.1889,-90.1683,1.0,28.2,11111222 
LUMCON,ioos:station:LUMCON:103:1,2004-06-07T19:00:00Z,30.1889,-90.1683,1.0,28.6,11111222 
LUMCON,ioos:station:LUMCON:103:1,2004-06-07T20:00:00Z,30.1889,-90.1683,1.0,29.0,11111222 
LUMCON,ioos:station:LUMCON:103:1,2004-06-07T21:00:00Z,30.1889,-90.1683,1.0,29.0,11111222 
LUMCON,ioos:station:LUMCON:103:1,2004-06-07T22:00:00Z,30.1889,-90.1683,1.0,28.9,11111222 
LUMCON,ioos:station:LUMCON:103:1,2004-06-07T23:00:00Z,30.1889,-90.1683,1.0,28.9,11111222 
LUMCON,ioos:station:LUMCON:103:1,2004-06-08T00:00:00Z,30.1889,-90.1683,1.0,28.8,11111222 
LUMCON,ioos:station:LUMCON:103:1,2004-06-08T01:00:00Z,30.1889,-90.1683,1.0,28.8,11111222 
LUMCON,ioos:station:LUMCON:103:1,2004-06-08T02:00:00Z,30.1889,-90.1683,1.0,28.7,11111222 
LUMCON,ioos:station:LUMCON:103:1,2004-06-08T03:00:00Z,30.1889,-90.1683,1.0,28.6,11111222 
LUMCON,ioos:station:LUMCON:103:1,2004-06-08T04:00:00Z,30.1889,-90.1683,1.0,28.4,11111222 
LUMCON,ioos:station:LUMCON:103:1,2004-06-08T05:00:00Z,30.1889,-90.1683,1.0,28.4,11111222 
LUMCON,ioos:station:LUMCON:103:1,2004-06-08T06:00:00Z,30.1889,-90.1683,1.0,28.4,11111222 
LUMCON,ioos:station:LUMCON:103:1,2004-06-08T07:00:00Z,30.1889,-90.1683,1.0,28.3,11111222 
LUMCON,ioos:station:LUMCON:103:1,2004-06-08T08:00:00Z,30.1889,-90.1683,1.0,28.3,11111222 
LUMCON,ioos:station:LUMCON:103:1,2004-06-08T09:00:00Z,30.1889,-90.1683,1.0,28.3,11111222 
LUMCON,ioos:station:LUMCON:103:1,2004-06-08T10:00:00Z,30.1889,-90.1683,1.0,28.2,11111222 
LUMCON,ioos:station:LUMCON:103:1,2004-06-08T11:00:00Z,30.1889,-90.1683,1.0,28.0,11111222 
LUMCON,ioos:station:LUMCON:103:1,2004-06-08T12:00:00Z,30.1889,-90.1683,1.0,28.0,11111222 
LUMCON,ioos:station:LUMCON:103:1,2004-06-08T13:00:00Z,30.1889,-90.1683,1.0,27.9,11111222 
LUMCON,ioos:station:LUMCON:103:1,2004-06-08T14:00:00Z,30.1889,-90.1683,1.0,27.7,11111222 
LUMCON,ioos:station:LUMCON:103:1,2004-06-08T15:00:00Z,30.1889,-90.1683,1.0,28.1,11111222 
LUMCON,ioos:station:LUMCON:103:1,2004-06-08T16:00:00Z,30.1889,-90.1683,1.0,28.3,11111222 
LUMCON,ioos:station:LUMCON:103:1,2004-06-08T17:00:00Z,30.1889,-90.1683,1.0,28.4,11111222 
LUMCON,ioos:station:LUMCON:103:1,2004-06-08T19:00:00Z,30.1889,-90.1683,1.0,29.2,11111222 
LUMCON,ioos:station:LUMCON:103:1,2004-06-08T20:00:00Z,30.1889,-90.1683,1.0,29.5,11111222 
LUMCON,ioos:station:LUMCON:103:1,2004-06-08T21:00:00Z,30.1889,-90.1683,1.0,29.6,11111222 
LUMCON,ioos:station:LUMCON:103:1,2004-06-08T22:00:00Z,30.1889,-90.1683,1.0,29.1,11111222 
LUMCON,ioos:station:LUMCON:103:1,2004-06-08T23:00:00Z,30.1889,-90.1683,1.0,29.5,11111222 
LUMCON,ioos:station:LUMCON:103:1,2004-06-09T00:00:00Z,30.1889,-90.1683,1.0,29.5,11111222 
LUMCON,ioos:station:LUMCON:103:1,2004-06-09T01:00:00Z,30.1889,-90.1683,1.0,29.1,11111222 
LUMCON,ioos:station:LUMCON:103:1,2004-06-09T02:00:00Z,30.1889,-90.1683,1.0,28.4,11111222 
LUMCON,ioos:station:LUMCON:103:1,2004-06-09T14:00:00Z,30.1889,-90.1683,1.0,28.7,11111222 
LUMCON,ioos:station:LUMCON:103:1,2004-06-09T15:00:00Z,30.1889,-90.1683,1.0,28.6,11111222 
LUMCON,ioos:station:LUMCON:103:1,2004-06-09T16:00:00Z,30.1889,-90.1683,1.0,28.7,11111222 
LUMCON,ioos:station:LUMCON:103:1,2004-06-09T18:00:00Z,30.1889,-90.1683,1.0,29.0,11111222 
LUMCON,ioos:station:LUMCON:103:1,2004-06-09T19:00:00Z,30.1889,-90.1683,1.0,29.3,11111222 
LUMCON,ioos:station:LUMCON:103:1,2004-06-09T20:00:00Z,30.1889,-90.1683,1.0,29.9,11111222 
LUMCON,ioos:station:LUMCON:103:1,2004-06-09T21:00:00Z,30.1889,-90.1683,1.0,30.2,11111222 
LUMCON,ioos:station:LUMCON:103:1,2004-06-09T22:00:00Z,30.1889,-90.1683,1.0,30.3,11111222 
LUMCON,ioos:station:LUMCON:103:1,2004-06-09T23:00:00Z,30.1889,-90.1683,1.0,30.3,11111222 
LUMCON,ioos:station:LUMCON:103:1,2004-06-10T00:00:00Z,30.1889,-90.1683,1.0,30.3,11111222 
LUMCON,ioos:station:LUMCON:103:1,2004-06-10T19:00:00Z,30.1889,-90.1683,1.0,29.0,11111222 
LUMCON,ioos:station:LUMCON:103:1,2004-06-10T20:00:00Z,30.1889,-90.1683,1.0,28.9,11111222 
LUMCON,ioos:station:LUMCON:103:1,2004-06-10T21:00:00Z,30.1889,-90.1683,1.0,28.9,11111222 
LUMCON,ioos:station:LUMCON:103:1,2004-06-10T22:00:00Z,30.1889,-90.1683,1.0,30.4,11111222 
LUMCON,ioos:station:LUMCON:103:1,2004-06-10T23:00:00Z,30.1889,-90.1683,1.0,30.3,11111222 
LUMCON,ioos:station:LUMCON:103:1,2004-06-11T00:00:00Z,30.1889,-90.1683,1.0,29.8,11111222 
LUMCON,ioos:station:LUMCON:103:1,2004-06-11T01:00:00Z,30.1889,-90.1683,1.0,29.6,11111222 
LUMCON,ioos:station:LUMCON:103:1,2004-06-11T02:00:00Z,30.1889,-90.1683,1.0,29.4,11111222 
LUMCON,ioos:station:LUMCON:103:1,2004-06-11T03:00:00Z,30.1889,-90.1683,1.0,29.3,11111222 
LUMCON,ioos:station:LUMCON:103:1,2004-06-11T04:00:00Z,30.1889,-90.1683,1.0,29.2,11111222 
LUMCON,ioos:station:LUMCON:103:1,2004-06-11T05:00:00Z,30.1889,-90.1683,1.0,29.1,11111222 
LUMCON,ioos:station:LUMCON:103:1,2004-06-11T06:00:00Z,30.1889,-90.1683,1.0,29.0,11111222 
LUMCON,ioos:station:LUMCON:103:1,2004-06-11T07:00:00Z,30.1889,-90.1683,1.0,28.9,11111222 
LUMCON,ioos:station:LUMCON:103:1,2004-06-11T08:00:00Z,30.1889,-90.1683,1.0,28.7,11111222 
LUMCON,ioos:station:LUMCON:103:1,2004-06-11T09:00:00Z,30.1889,-90.1683,1.0,28.7,11111222 
LUMCON,ioos:station:LUMCON:103:1,2004-06-11T10:00:00Z,30.1889,-90.1683,1.0,28.7,11111222 
LUMCON,ioos:station:LUMCON:103:1,2004-06-11T11:00:00Z,30.1889,-90.1683,1.0,28.7,11111222 
LUMCON,ioos:station:LUMCON:103:1,2004-06-11T12:00:00Z,30.1889,-90.1683,1.0,28.7,11111222 
LUMCON,ioos:station:LUMCON:103:1,2004-06-11T13:00:00Z,30.1889,-90.1683,1.0,28.7,11111222 
LUMCON,ioos:station:LUMCON:103:1,2004-06-11T14:00:00Z,30.1889,-90.1683,1.0,28.8,11111222 
LUMCON,ioos:station:LUMCON:103:1,2004-06-11T15:00:00Z,30.1889,-90.1683,1.0,28.9,11111222 
LUMCON,ioos:station:LUMCON:103:1,2004-06-11T16:00:00Z,30.1889,-90.1683,1.0,28.8,11111222 
LUMCON,ioos:station:LUMCON:103:1,2004-06-11T17:00:00Z,30.1889,-90.1683,1.0,28.8,11111222 
LUMCON,ioos:station:LUMCON:103:1,2004-06-11T18:00:00Z,30.1889,-90.1683,1.0,28.8,11111222 
LUMCON,ioos:station:LUMCON:103:1,2004-06-11T19:00:00Z,30.1889,-90.1683,1.0,28.8,11111222 
LUMCON,ioos:station:LUMCON:103:1,2004-06-11T20:00:00Z,30.1889,-90.1683,1.0,28.8,11111222 
LUMCON,ioos:station:LUMCON:103:1,2004-06-11T21:00:00Z,30.1889,-90.1683,1.0,28.8,11111222 
LUMCON,ioos:station:LUMCON:103:1,2004-06-11T22:00:00Z,30.1889,-90.1683,1.0,28.7,11111222 
LUMCON,ioos:station:LUMCON:103:1,2004-06-11T23:00:00Z,30.1889,-90.1683,1.0,28.8,11111222 
LUMCON,ioos:station:LUMCON:103:1,2004-06-12T00:00:00Z,30.1889,-90.1683,1.0,29.7,11111222 
LUMCON,ioos:station:LUMCON:103:1,2004-06-12T01:00:00Z,30.1889,-90.1683,1.0,29.4,11111222 
LUMCON,ioos:station:LUMCON:103:1,2004-06-12T02:00:00Z,30.1889,-90.1683,1.0,29.3,11111222 
LUMCON,ioos:station:LUMCON:103:1,2004-06-12T03:00:00Z,30.1889,-90.1683,1.0,29.1,11111222 
LUMCON,ioos:station:LUMCON:103:1,2004-06-12T04:00:00Z,30.1889,-90.1683,1.0,29.3,11111222 
LUMCON,ioos:station:LUMCON:103:1,2004-06-12T05:00:00Z,30.1889,-90.1683,1.0,29.3,11111222 
LUMCON,ioos:station:LUMCON:103:1,2004-06-12T06:00:00Z,30.1889,-90.1683,1.0,29.5,11111222 
LUMCON,ioos:station:LUMCON:103:1,2004-06-12T07:00:00Z,30.1889,-90.1683,1.0,29.7,11111222 
LUMCON,ioos:station:LUMCON:103:1,2004-06-12T08:00:00Z,30.1889,-90.1683,1.0,29.6,11111222 
LUMCON,ioos:station:LUMCON:103:1,2004-06-12T09:00:00Z,30.1889,-90.1683,1.0,29.5,11111222 
LUMCON,ioos:station:LUMCON:103:1,2004-06-12T12:00:00Z,30.1889,-90.1683,1.0,29.3,11111222 
LUMCON,ioos:station:LUMCON:103:1,2004-06-12T13:00:00Z,30.1889,-90.1683,1.0,29.3,11111222 
LUMCON,ioos:station:LUMCON:103:1,2004-06-12T14:00:00Z,30.1889,-90.1683,1.0,29.2,11111222 
LUMCON,ioos:station:LUMCON:103:1,2004-06-12T15:00:00Z,30.1889,-90.1683,1.0,29.2,11111222 
LUMCON,ioos:station:LUMCON:103:1,2004-06-12T16:00:00Z,30.1889,-90.1683,1.0,29.2,11111222 
LUMCON,ioos:station:LUMCON:103:1,2004-06-12T18:00:00Z,30.1889,-90.1683,1.0,29.2,11111222 
LUMCON,ioos:station:LUMCON:103:1,2004-06-12T19:00:00Z,30.1889,-90.1683,1.0,29.1,11111222 
LUMCON,ioos:station:LUMCON:103:1,2004-06-12T20:00:00Z,30.1889,-90.1683,1.0,28.9,11111222 
LUMCON,ioos:station:LUMCON:103:1,2004-06-12T21:00:00Z,30.1889,-90.1683,1.0,28.8,11111222 
LUMCON,ioos:station:LUMCON:103:1,2004-06-12T22:00:00Z,30.1889,-90.1683,1.0,29.8,11111222 
LUMCON,ioos:station:LUMCON:103:1,2004-06-12T23:00:00Z,30.1889,-90.1683,1.0,30.0,11111222 
LUMCON,ioos:station:LUMCON:103:1,2004-06-13T00:00:00Z,30.1889,-90.1683,1.0,29.8,11111222 
LUMCON,ioos:station:LUMCON:103:1,2004-06-13T01:00:00Z,30.1889,-90.1683,1.0,29.8,11111222 
LUMCON,ioos:station:LUMCON:103:1,2004-06-13T02:00:00Z,30.1889,-90.1683,1.0,29.7,11111222 
LUMCON,ioos:station:LUMCON:103:1,2004-06-13T03:00:00Z,30.1889,-90.1683,1.0,29.5,11111222 
LUMCON,ioos:station:LUMCON:103:1,2004-06-13T06:00:00Z,30.1889,-90.1683,1.0,29.5,11111222 
LUMCON,ioos:station:LUMCON:103:1,2004-06-13T07:00:00Z,30.1889,-90.1683,1.0,29.4,11111222 
LUMCON,ioos:station:LUMCON:103:1,2004-06-13T08:00:00Z,30.1889,-90.1683,1.0,29.4,11111222 
LUMCON,ioos:station:LUMCON:103:1,2004-06-13T09:00:00Z,30.1889,-90.1683,1.0,29.5,11111222 
LUMCON,ioos:station:LUMCON:103:1,2004-06-13T10:00:00Z,30.1889,-90.1683,1.0,29.9,11111222 
LUMCON,ioos:station:LUMCON:103:1,2004-06-13T11:00:00Z,30.1889,-90.1683,1.0,30.0,11111222 
LUMCON,ioos:station:LUMCON:103:1,2004-06-13T12:00:00Z,30.1889,-90.1683,1.0,30.0,11111222 
LUMCON,ioos:station:LUMCON:103:1,2004-06-13T13:00:00Z,30.1889,-90.1683,1.0,29.6,11111222 
LUMCON,ioos:station:LUMCON:103:1,2004-06-13T14:00:00Z,30.1889,-90.1683,1.0,29.6,11111222 
LUMCON,ioos:station:LUMCON:103:1,2004-06-13T15:00:00Z,30.1889,-90.1683,1.0,29.4,11111222 
LUMCON,ioos:station:LUMCON:103:1,2004-06-13T16:00:00Z,30.1889,-90.1683,1.0,29.4,11111222 
LUMCON,ioos:station:LUMCON:103:1,2004-06-13T17:00:00Z,30.1889,-90.1683,1.0,29.4,11111222 
LUMCON,ioos:station:LUMCON:103:1,2004-06-13T18:00:00Z,30.1889,-90.1683,1.0,29.0,11111222 
LUMCON,ioos:station:LUMCON:103:1,2004-06-13T19:00:00Z,30.1889,-90.1683,1.0,28.9,11111222 
LUMCON,ioos:station:LUMCON:103:1,2004-06-13T20:00:00Z,30.1889,-90.1683,1.0,29.7,11111222 
LUMCON,ioos:station:LUMCON:103:1,2004-06-13T21:00:00Z,30.1889,-90.1683,1.0,30.1,11111222 
LUMCON,ioos:station:LUMCON:103:1,2004-06-13T22:00:00Z,30.1889,-90.1683,1.0,30.1,11111222 
LUMCON,ioos:station:LUMCON:103:1,2004-06-13T23:00:00Z,30.1889,-90.1683,1.0,30.2,11111222 
LUMCON,ioos:station:LUMCON:103:1,2004-06-14T00:00:00Z,30.1889,-90.1683,1.0,30.1,11111222 
LUMCON,ioos:station:LUMCON:103:1,2004-06-14T01:00:00Z,30.1889,-90.1683,1.0,30.0,11111222 
LUMCON,ioos:station:LUMCON:103:1,2004-06-14T02:00:00Z,30.1889,-90.1683,1.0,29.9,11111222 
LUMCON,ioos:station:LUMCON:103:1,2004-06-14T03:00:00Z,30.1889,-90.1683,1.0,29.9,11111222 
LUMCON,ioos:station:LUMCON:103:1,2004-06-14T04:00:00Z,30.1889,-90.1683,1.0,29.9,11111222 
LUMCON,ioos:station:LUMCON:103:1,2004-06-14T05:00:00Z,30.1889,-90.1683,1.0,29.8,11111222 
LUMCON,ioos:station:LUMCON:103:1,2004-06-14T06:00:00Z,30.1889,-90.1683,1.0,29.8,11111222 
LUMCON,ioos:station:LUMCON:103:1,2004-06-14T07:00:00Z,30.1889,-90.1683,1.0,29.6,11111222 
LUMCON,ioos:station:LUMCON:103:1,2004-06-14T08:00:00Z,30.1889,-90.1683,1.0,29.5,11111222 
LUMCON,ioos:station:LUMCON:103:1,2004-06-14T09:00:00Z,30.1889,-90.1683,1.0,29.4,11111222 
LUMCON,ioos:station:LUMCON:103:1,2004-06-14T10:00:00Z,30.1889,-90.1683,1.0,29.1,11111222 
LUMCON,ioos:station:LUMCON:103:1,2004-06-14T11:00:00Z,30.1889,-90.1683,1.0,29.1,11111222 
LUMCON,ioos:station:LUMCON:103:1,2004-06-14T12:00:00Z,30.1889,-90.1683,1.0,29.2,11111222 
LUMCON,ioos:station:LUMCON:103:1,2004-06-14T13:00:00Z,30.1889,-90.1683,1.0,29.1,11111222 
LUMCON,ioos:station:LUMCON:103:1,2004-06-14T14:00:00Z,30.1889,-90.1683,1.0,29.1,11111222 
LUMCON,ioos:station:LUMCON:103:1,2004-06-14T15:00:00Z,30.1889,-90.1683,1.0,29.1,11111222 
LUMCON,ioos:station:LUMCON:103:1,2004-06-14T16:00:00Z,30.1889,-90.1683,1.0,29.1,11111222 
LUMCON,ioos:station:LUMCON:103:1,2004-06-14T17:00:00Z,30.1889,-90.1683,1.0,29.1,11111222 
LUMCON,ioos:station:LUMCON:103:1,2004-06-14T18:00:00Z,30.1889,-90.1683,1.0,28.4,11111222 
LUMCON,ioos:station:LUMCON:103:1,2004-06-14T19:00:00Z,30.1889,-90.1683,1.0,28.6,11111222 
LUMCON,ioos:station:LUMCON:103:1,2004-06-14T21:00:00Z,30.1889,-90.1683,1.0,29.1,11111222 
LUMCON,ioos:station:LUMCON:103:1,2004-06-14T22:00:00Z,30.1889,-90.1683,1.0,29.6,11111222 
LUMCON,ioos:station:LUMCON:103:1,2004-06-14T23:00:00Z,30.1889,-90.1683,1.0,29.6,11111222 
LUMCON,ioos:station:LUMCON:103:1,2004-06-15T00:00:00Z,30.1889,-90.1683,1.0,29.5,11111222 
LUMCON,ioos:station:LUMCON:103:1,2004-06-15T01:00:00Z,30.1889,-90.1683,1.0,29.5,11111222 
LUMCON,ioos:station:LUMCON:103:1,2004-06-15T02:00:00Z,30.1889,-90.1683,1.0,29.5,11111222 
LUMCON,ioos:station:LUMCON:103:1,2004-06-15T04:00:00Z,30.1889,-90.1683,1.0,29.4,11111222 
LUMCON,ioos:station:LUMCON:103:1,2004-06-15T05:00:00Z,30.1889,-90.1683,1.0,29.4,11111222 
LUMCON,ioos:station:LUMCON:103:1,2004-06-15T06:00:00Z,30.1889,-90.1683,1.0,29.3,11111222 
LUMCON,ioos:station:LUMCON:103:1,2004-06-15T07:00:00Z,30.1889,-90.1683,1.0,29.3,11111222 
LUMCON,ioos:station:LUMCON:103:1,2004-06-15T08:00:00Z,30.1889,-90.1683,1.0,29.2,11111222 
LUMCON,ioos:station:LUMCON:103:1,2004-06-15T09:00:00Z,30.1889,-90.1683,1.0,29.2,11111222 
LUMCON,ioos:station:LUMCON:103:1,2004-06-15T10:00:00Z,30.1889,-90.1683,1.0,29.1,11111222 
LUMCON,ioos:station:LUMCON:103:1,2004-06-15T11:00:00Z,30.1889,-90.1683,1.0,29.0,11111222 
LUMCON,ioos:station:LUMCON:103:1,2004-06-15T12:00:00Z,30.1889,-90.1683,1.0,29.0,11111222 
LUMCON,ioos:station:LUMCON:103:1,2004-06-15T13:00:00Z,30.1889,-90.1683,1.0,28.9,11111222 
LUMCON,ioos:station:LUMCON:103:1,2004-06-15T15:00:00Z,30.1889,-90.1683,1.0,28.9,11111222 
LUMCON,ioos:station:LUMCON:103:1,2004-06-15T16:00:00Z,30.1889,-90.1683,1.0,29.0,11111222 
LUMCON,ioos:station:LUMCON:103:1,2004-06-15T17:00:00Z,30.1889,-90.1683,1.0,29.1,11111222 
LUMCON,ioos:station:LUMCON:103:1,2004-06-15T18:00:00Z,30.1889,-90.1683,1.0,29.0,11111222 
LUMCON,ioos:station:LUMCON:103:1,2004-06-15T19:00:00Z,30.1889,-90.1683,1.0,29.1,11111222 
LUMCON,ioos:station:LUMCON:103:1,2004-06-15T21:00:00Z,30.1889,-90.1683,1.0,29.0,11111222 
LUMCON,ioos:station:LUMCON:103:1,2004-06-15T22:00:00Z,30.1889,-90.1683,1.0,29.0,11111222 
LUMCON,ioos:station:LUMCON:103:1,2004-06-15T23:00:00Z,30.1889,-90.1683,1.0,29.1,11111222 
LUMCON,ioos:station:LUMCON:103:1,2004-06-16T01:00:00Z,30.1889,-90.1683,1.0,29.6,11111222 
LUMCON,ioos:station:LUMCON:103:1,2004-06-16T02:00:00Z,30.1889,-90.1683,1.0,29.5,11111222 
LUMCON,ioos:station:LUMCON:103:1,2004-06-16T03:00:00Z,30.1889,-90.1683,1.0,29.4,11111222 
LUMCON,ioos:station:LUMCON:103:1,2004-06-16T04:00:00Z,30.1889,-90.1683,1.0,29.2,11111222 
LUMCON,ioos:station:LUMCON:103:1,2004-06-16T05:00:00Z,30.1889,-90.1683,1.0,29.4,11111222 
LUMCON,ioos:station:LUMCON:103:1,2004-06-16T06:00:00Z,30.1889,-90.1683,1.0,29.6,11111222 
LUMCON,ioos:station:LUMCON:103:1,2004-06-16T07:00:00Z,30.1889,-90.1683,1.0,29.5,11111222 
LUMCON,ioos:station:LUMCON:103:1,2004-06-16T08:00:00Z,30.1889,-90.1683,1.0,29.6,11111222 
LUMCON,ioos:station:LUMCON:103:1,2004-06-16T09:00:00Z,30.1889,-90.1683,1.0,29.2,11111222 
LUMCON,ioos:station:LUMCON:103:1,2004-06-16T10:00:00Z,30.1889,-90.1683,1.0,28.9,11111222 
LUMCON,ioos:station:LUMCON:103:1,2004-06-16T12:00:00Z,30.1889,-90.1683,1.0,29.3,11111222 
LUMCON,ioos:station:LUMCON:103:1,2004-06-16T13:00:00Z,30.1889,-90.1683,1.0,29.3,11111222 
LUMCON,ioos:station:LUMCON:103:1,2004-06-16T14:00:00Z,30.1889,-90.1683,1.0,29.4,11111222 
LUMCON,ioos:station:LUMCON:103:1,2004-06-16T15:00:00Z,30.1889,-90.1683,1.0,29.8,11111222 
LUMCON,ioos:station:LUMCON:103:1,2004-06-16T16:00:00Z,30.1889,-90.1683,1.0,29.9,11111222 
LUMCON,ioos:station:LUMCON:103:1,2004-06-16T17:00:00Z,30.1889,-90.1683,1.0,30.1,11111222 